Location: Asheville, NC
(35.6000°N, 82.5500°W)
Time: 17:31:03
(UTC-04:00)

Vanguard 2 - Pass Details

Date: 18 February 2018
Orbit: 552 x 2940 km, 32.9° (Epoch: 22 May)

Event Time Altitude Azimuth Distance (km) Brightness Sun altitude
Rises 14:59:53 0° 200° (SSW) 6,503 13.2 33.1°
Reaches altitude 10° 15:06:45 10° 183° (S) 5,123 12.6 32.2°
Maximum altitude 15:14:36 17° 150° (SSE) 3,982 11.5 31.1°
Drops below altitude 10° 15:20:53 10° 114° (ESE) 3,965 11.0 30.2°
Sets 15:25:03 0° 95° (E) 4,521 11.1 29.5°
